#timestamp,LO_Frequency,Hit,StdDev 
1551452415.0,286047000.4,N
1551452415.9,286047000.4,N
1551452435.8,286047002.6,N
1551452455.6,286047002.6,N
1551452475.5,286047001.8,N
1551452495.3,286047003.9,N
1551452515.1,286047003.3,N
1551452535.9,286047002.8,N
1551452555.7,286047000.4,N
1551452575.5,286047000.6,N
1551452595.4,286047002.4,N
1551452615.2,286046998.4,N
1551452635.1,286046998.3,N
1551452636.0,286046998.3,N
1551452655.8,286047000.2,N
1551452675.6,286046999.7,N
1551452695.5,286047002.2,N
1551452715.3,286047002.6,N
1551452735.1,286047002.3,N
1551452755.9,286047001.3,N
1551452775.7,286047002.0,N
1551452795.6,286047001.9,N
1551452815.4,286047004.2,N
1551452835.2,286047001.7,N
1551452855.1,286047003.3,N
1551452856.0,286047003.3,N
1551452875.8,286047004.0,N
1551452895.7,286047004.3,N
1551452915.5,286047001.8,N
1551452935.3,286047002.0,N
1551452955.2,286046999.8,N
1551452975.0,286047000.6,N
1551452975.9,286047000.6,N
1551452995.7,286047002.7,N
1551453015.6,286047002.2,N
1551453035.4,286047002.3,N
1551453055.3,286047002.7,N
1551453075.1,286047002.5,N
1551453095.8,286047002.5,N
1551453115.7,286047001.3,N
1551453135.5,286047001.5,N
1551453155.4,286047001.9,N
1551453175.2,286047001.6,N
1551453195.0,286047000.1,N
1551453195.9,286047000.1,N
1551453215.8,286047002.3,N
1551453235.6,286047003.0,N
1551453255.4,286047003.2,N
1551453275.3,286047001.9,N
1551453295.1,286047002.4,N
1551453315.9,286047001.6,N
1551453335.7,286047004.1,Y
1551453355.5,286047000.5,P
1551453375.4,286046999.5,N
1551453395.2,286046996.7,P
1551453415.0,286046995.5,N
1551453416.0,286046995.5,N
1551453435.8,286046995.4,N
1551453455.6,286046997.8,N
1551453475.5,286047001.2,N
1551453495.3,286047000.3,N
1551453515.1,286047000.9,N
1551453535.9,286047002.2,N
1551453555.7,286047002.8,N
1551453575.6,286047000.7,N
1551453595.4,286047000.6,N
1551453615.2,286046999.9,N
1551453635.1,286047002.8,N
1551453636.0,286047002.8,N
1551453655.8,286047002.6,N
1551453675.6,286047002.6,N
1551453695.5,286047000.2,N
1551453715.3,286047001.1,N
1551453735.2,286047000.0,N
1551453755.9,286046999.9,N
1551453775.7,286047000.5,N
1551453795.6,286047000.6,N
1551453815.4,286047000.7,N
1551453835.2,286047000.9,N
1551453855.1,286046999.7,N
1551453856.0,286046999.7,N
1551453875.8,286047000.6,N
1551453895.7,286047001.0,N
1551453915.5,286047000.4,N
1551453935.3,286046998.4,N
1551453955.2,286046999.5,N
1551453975.0,286046996.5,N
1551453975.9,286046996.5,N
1551453995.7,286046998.6,N
1551454015.6,286046998.7,N
1551454035.4,286046998.7,N
1551454055.3,286046997.2,N
1551454075.1,286046995.2,N
1551454076.0,286046995.2,N
1551454095.8,286046995.0,N
1551454115.7,286046994.9,N
1551454135.5,286046997.5,N
1551454155.3,286046997.5,N
1551454175.2,286046995.2,N
1551454195.0,286046997.5,N
1551454195.9,286046997.5,N
1551454215.8,286046995.0,N
1551454235.6,286046997.1,N
1551454255.4,286046999.4,N
1551454275.3,286046998.6,N
1551454295.1,286046997.0,N
1551454315.9,286046998.7,N
1551454335.7,286046998.2,N
1551454355.5,286046998.2,N
1551454375.4,286047001.6,N
1551454395.2,286047002.4,N
1551454415.0,286047004.1,N
1551454415.9,286047004.1,N
1551454435.8,286047005.7,N
1551454455.6,286047005.8,N
1551454475.5,286047003.8,N
1551454495.3,286047003.6,N
1551454515.1,286047005.9,N
1551454535.9,286047005.3,N
1551454555.7,286047004.7,N
1551454575.5,286047003.2,N
1551454595.4,286047003.4,N
1551454615.2,286047002.0,N
1551454635.1,286046999.7,N
1551454636.0,286046999.7,N
1551454655.8,286046999.7,N
1551454675.6,286047002.4,N
1551454695.5,286047004.0,N
1551454715.3,286047004.3,N
1551454735.1,286047006.0,N
1551454755.9,286047001.4,N
1551454775.7,286046999.7,N
1551454795.6,286047002.0,N
1551454815.4,286047004.4,N
1551454835.2,286047001.8,N
1551454855.1,286047001.6,N
1551454856.0,286047001.6,N
1551454875.8,286047002.5,N
1551454895.6,286047000.1,N
1551454915.5,286047000.6,N
1551454935.3,286047000.1,N
1551454955.2,286046999.8,N
1551454975.9,286047000.4,N
1551454995.7,286047000.1,N
1551455015.6,286047001.4,N
1551455035.4,286047002.6,N
1551455055.2,286047002.6,N
1551455075.1,286047004.1,N
1551455076.0,286047004.1,N
1551455095.8,286047004.3,N
1551455115.7,286047002.5,N
1551455135.5,286046999.7,N
1551455155.3,286047002.3,N
1551455175.2,286047000.0,N
1551455195.0,286047000.6,N
1551455195.9,286047000.6,N
1551455215.8,286047002.5,N
1551455235.6,286047002.8,N
1551455255.4,286047000.2,N
1551455275.3,286046999.8,N
1551455295.1,286047002.2,N
1551455315.8,286047002.1,N
1551455335.7,286046999.7,N
1551455355.5,286047002.5,N
1551455375.4,286047000.0,N
1551455395.2,286047004.2,N
1551455415.0,286047000.2,N
1551455415.9,286047000.2,N
1551455435.8,286047000.1,N
1551455455.6,286046999.6,N
1551455475.4,286046999.5,N
1551455495.3,286046999.1,N
1551455515.1,286047000.4,N
1551455535.9,286046999.9,N
1551455555.7,286047002.6,N
1551455575.5,286047000.6,N
1551455595.4,286046998.5,N
1551455615.2,286046999.3,N
1551455635.0,286046998.6,N
1551455636.0,286046998.6,N
1551455655.8,286047001.1,N
1551455675.6,286047000.7,N
1551455695.5,286047002.2,N
1551455715.3,286047003.9,N
1551455735.1,286047001.4,N
1551455755.9,286047002.5,N
1551455775.7,286047001.4,N
1551455795.6,286047002.2,N
1551455815.4,286047002.4,N
1551455835.2,286047002.2,N
1551455855.1,286047001.4,N
1551455856.0,286047001.4,N
1551455875.8,286046999.7,N
1551455895.6,286047001.0,N
1551455915.5,286047000.7,N
1551455935.3,286047002.7,N
1551455955.2,286047001.6,N
1551455975.9,286046999.9,N
1551455995.7,286046999.9,N
